INTELSAT 902 (IS-902)

Last updated on May 20, 2019, 3:09 a.m. UTC

1 26900U 01039A   19139.81987685  .00000023  00000-0  00000+0 0  9999
2 26900   0.0292 112.0849 0002975 312.0053 170.2619  1.00271975 64844
UTC
Height (km)
Latitude
Longitude
Inclination
Orbital Period
UTC large
Height (km)
Speed (km/s)
/
Latitude / Longitude
Inclination (degrees)
Orbital Period (minutes)
Azimuth
Elevation
Range (km)
Doppler Factor
iOS Compass Heading
iOS Angle

Next 30 passes for location: Hong Kong

Rise time Rise Azimuth (degrees) Set time Set Azimuth (degrees) Duration Max altitude (degrees)

No matching passes for this satellites